Location: Monrovia
(34.7865°N, 86.7139°W)
Time: 23:43:26
(UTC+00:00)

Cosmos 1943 Rocket - Pass Details

Date: 14 July 2020
Orbit: 811 x 845 km, 71.0° (Epoch: 12 August)

Event Time Altitude Azimuth Distance (km) Brightness Sun altitude
Rises 03:10:11 0° 357° (N) 3,407 6.2 -21.7°
Reaches altitude 10° 03:13:50 10° 20° (NNE) 2,464 5.0 -22.1°
Maximum altitude 03:16:58 15° 54° (NE) 2,128 4.2 -22.6°
Enters shadow 03:18:25 14° 72° (ENE) 2,201 4.2 -22.7°
